Year,Month,Day,Hour,Minute,Value (Times are PST for insolation in W/m^2)
2014,03,01,00,00,0.00
2014,03,01,00,01,0.00
2014,03,01,00,02,0.00
2014,03,01,00,03,0.00
2014,03,01,00,04,0.00
2014,03,01,00,05,0.00
2014,03,01,00,06,0.00
2014,03,01,00,07,0.00
2014,03,01,00,08,0.00
2014,03,01,00,09,0.00
2014,03,01,00,10,0.00
2014,03,01,00,11,0.00
2014,03,01,00,12,0.00
2014,03,01,00,13,0.00
2014,03,01,00,14,0.00
2014,03,01,00,15,0.00
2014,03,01,00,16,0.00
2014,03,01,00,17,0.00
2014,03,01,00,18,0.00
2014,03,01,00,19,0.00
2014,03,01,00,20,0.00
2014,03,01,00,21,0.00
2014,03,01,00,22,0.00
2014,03,01,00,23,0.00
2014,03,01,00,24,0.00
2014,03,01,00,25,0.00
2014,03,01,00,26,0.00
2014,03,01,00,27,0.00
2014,03,01,00,28,0.00
2014,03,01,00,29,0.00
2014,03,01,00,30,0.00
2014,03,01,00,31,0.00
2014,03,01,00,32,0.00
2014,03,01,00,33,0.00
2014,03,01,00,34,0.00
2014,03,01,00,35,0.00
2014,03,01,00,36,0.00
2014,03,01,00,37,0.00
2014,03,01,00,38,0.00
2014,03,01,00,39,0.00
2014,03,01,00,40,0.00
2014,03,01,00,41,0.00
2014,03,01,00,42,0.00
2014,03,01,00,43,0.00
2014,03,01,00,44,0.00
2014,03,01,00,45,0.00
2014,03,01,00,46,0.00
2014,03,01,00,47,0.00
2014,03,01,00,48,0.00
2014,03,01,00,49,0.00
2014,03,01,00,50,0.00
2014,03,01,00,51,0.00
2014,03,01,00,52,0.00
2014,03,01,00,53,0.00
2014,03,01,00,54,0.00
2014,03,01,00,55,0.00
2014,03,01,00,56,0.00
2014,03,01,00,57,0.00
2014,03,01,00,58,0.00
2014,03,01,00,59,0.00
2014,03,01,01,00,0.00
2014,03,01,01,01,0.00
2014,03,01,01,02,0.00
2014,03,01,01,03,0.00
2014,03,01,01,04,0.00
2014,03,01,01,05,0.00
2014,03,01,01,06,0.00
2014,03,01,01,07,0.00
2014,03,01,01,08,0.00
2014,03,01,01,09,0.00
2014,03,01,01,10,0.00
2014,03,01,01,11,0.00
2014,03,01,01,12,0.00
2014,03,01,01,13,0.00
2014,03,01,01,14,0.00
2014,03,01,01,15,0.00
2014,03,01,01,16,0.00
2014,03,01,01,17,0.00
2014,03,01,01,18,0.00
2014,03,01,01,19,0.00
2014,03,01,01,20,0.00
2014,03,01,01,21,0.00
2014,03,01,01,22,0.00
2014,03,01,01,23,0.00
2014,03,01,01,24,0.00
2014,03,01,01,25,0.00
2014,03,01,01,26,0.00
2014,03,01,01,27,0.00
2014,03,01,01,28,0.00
2014,03,01,01,29,0.00
2014,03,01,01,30,0.00
2014,03,01,01,31,0.00
2014,03,01,01,32,0.00
2014,03,01,01,33,0.00
2014,03,01,01,34,0.00
2014,03,01,01,35,0.00
2014,03,01,01,36,0.00
2014,03,01,01,37,0.00
2014,03,01,01,38,0.00
2014,03,01,01,39,0.00
2014,03,01,01,40,0.00
2014,03,01,01,41,0.00
2014,03,01,01,42,0.00
2014,03,01,01,43,0.00
2014,03,01,01,44,0.00
2014,03,01,01,45,0.00
2014,03,01,01,46,0.00
2014,03,01,01,47,0.00
2014,03,01,01,48,0.00
2014,03,01,01,49,0.00
2014,03,01,01,50,0.00
2014,03,01,01,51,0.00
2014,03,01,01,52,0.00
2014,03,01,01,53,0.00
2014,03,01,01,54,0.00
2014,03,01,01,55,0.00
2014,03,01,01,56,0.00
2014,03,01,01,57,0.00
2014,03,01,01,58,0.00
2014,03,01,01,59,0.00
2014,03,01,02,00,0.00
2014,03,01,02,01,0.00
2014,03,01,02,02,0.00
2014,03,01,02,03,0.00
2014,03,01,02,04,0.00
2014,03,01,02,05,0.00
2014,03,01,02,06,0.00
2014,03,01,02,07,0.00
2014,03,01,02,08,0.00
2014,03,01,02,09,0.00
2014,03,01,02,10,0.00
2014,03,01,02,11,0.00
2014,03,01,02,12,0.00
2014,03,01,02,13,0.00
2014,03,01,02,14,0.00
2014,03,01,02,15,0.00
2014,03,01,02,16,0.00
2014,03,01,02,17,0.00
2014,03,01,02,18,0.00
2014,03,01,02,19,0.00
2014,03,01,02,20,0.00
2014,03,01,02,21,0.00
2014,03,01,02,22,0.00
2014,03,01,02,23,0.00
2014,03,01,02,24,0.00
2014,03,01,02,25,0.00
2014,03,01,02,26,0.00
2014,03,01,02,27,0.00
2014,03,01,02,28,0.00
2014,03,01,02,29,0.00
2014,03,01,02,30,0.00
2014,03,01,02,31,0.00
2014,03,01,02,32,0.00
2014,03,01,02,33,0.00
2014,03,01,02,34,0.00
2014,03,01,02,35,0.00
2014,03,01,02,36,0.00
2014,03,01,02,37,0.00
2014,03,01,02,38,0.00
2014,03,01,02,39,0.00
2014,03,01,02,40,0.00
2014,03,01,02,41,0.00
2014,03,01,02,42,0.00
2014,03,01,02,43,0.00
2014,03,01,02,44,0.00
2014,03,01,02,45,0.00
2014,03,01,02,46,0.00
2014,03,01,02,47,0.00
2014,03,01,02,48,0.00
2014,03,01,02,49,0.00
2014,03,01,02,50,0.00
2014,03,01,02,51,0.00
2014,03,01,02,52,0.00
2014,03,01,02,53,0.00
2014,03,01,02,54,0.00
2014,03,01,02,55,0.00
2014,03,01,02,56,0.00
2014,03,01,02,57,0.00
2014,03,01,02,58,0.00
2014,03,01,02,59,0.00
2014,03,01,03,00,0.00
2014,03,01,03,01,0.00
2014,03,01,03,02,0.00
2014,03,01,03,03,0.00
2014,03,01,03,04,0.00
2014,03,01,03,05,0.00
2014,03,01,03,06,0.00
2014,03,01,03,07,0.00
2014,03,01,03,08,0.00
2014,03,01,03,09,0.00
2014,03,01,03,10,0.00
2014,03,01,03,11,0.00
2014,03,01,03,12,0.00
2014,03,01,03,13,0.00
2014,03,01,03,14,0.00
2014,03,01,03,15,0.00
2014,03,01,03,16,0.00
2014,03,01,03,17,0.00
2014,03,01,03,18,0.00
2014,03,01,03,19,0.00
2014,03,01,03,20,0.00
2014,03,01,03,21,0.00
2014,03,01,03,22,0.00
2014,03,01,03,23,0.00
2014,03,01,03,24,0.00
2014,03,01,03,25,0.00
2014,03,01,03,26,0.00
2014,03,01,03,27,0.00
2014,03,01,03,28,0.00
2014,03,01,03,29,0.00
2014,03,01,03,30,0.00
2014,03,01,03,31,0.00
2014,03,01,03,32,0.00
2014,03,01,03,33,0.00
2014,03,01,03,34,0.00
2014,03,01,03,35,0.00
2014,03,01,03,36,0.00
2014,03,01,03,37,0.00
2014,03,01,03,38,0.00
2014,03,01,03,39,0.00
2014,03,01,03,40,0.00
2014,03,01,03,41,0.00
2014,03,01,03,42,0.00
2014,03,01,03,43,0.00
2014,03,01,03,44,0.00
2014,03,01,03,45,0.00
2014,03,01,03,46,0.00
2014,03,01,03,47,0.00
2014,03,01,03,48,0.00
2014,03,01,03,49,0.00
2014,03,01,03,50,0.00
2014,03,01,03,51,0.00
2014,03,01,03,52,0.00
2014,03,01,03,53,0.00
2014,03,01,03,54,0.00
2014,03,01,03,55,0.00
2014,03,01,03,56,0.00
2014,03,01,03,57,0.00
2014,03,01,03,58,0.00
2014,03,01,03,59,0.00
2014,03,01,04,00,0.00
2014,03,01,04,01,0.00
2014,03,01,04,02,0.00
2014,03,01,04,03,0.00
2014,03,01,04,04,0.00
2014,03,01,04,05,0.00
2014,03,01,04,06,0.00
2014,03,01,04,07,0.00
2014,03,01,04,08,0.00
2014,03,01,04,09,0.00
2014,03,01,04,10,0.00
2014,03,01,04,11,0.00
2014,03,01,04,12,0.00
2014,03,01,04,13,0.00
2014,03,01,04,14,0.00
2014,03,01,04,15,0.00
2014,03,01,04,16,0.00
2014,03,01,04,17,0.00
2014,03,01,04,18,0.00
2014,03,01,04,19,0.00
2014,03,01,04,20,0.00
2014,03,01,04,21,0.00
2014,03,01,04,22,0.00
2014,03,01,04,23,0.00
2014,03,01,04,24,0.00
2014,03,01,04,25,0.00
2014,03,01,04,26,0.00
2014,03,01,04,27,0.00
2014,03,01,04,28,0.00
2014,03,01,04,29,0.00
2014,03,01,04,30,0.00
2014,03,01,04,31,0.00
2014,03,01,04,32,0.00
2014,03,01,04,33,0.00
2014,03,01,04,34,0.00
2014,03,01,04,35,0.00
2014,03,01,04,36,0.00
2014,03,01,04,37,0.00
2014,03,01,04,38,0.00
2014,03,01,04,39,0.00
2014,03,01,04,40,0.00
2014,03,01,04,41,0.00
2014,03,01,04,42,0.00
2014,03,01,04,43,0.00
2014,03,01,04,44,0.00
2014,03,01,04,45,0.00
2014,03,01,04,46,0.00
2014,03,01,04,47,0.00
2014,03,01,04,48,0.00
2014,03,01,04,49,0.00
2014,03,01,04,50,0.00
2014,03,01,04,51,0.00
2014,03,01,04,52,0.00
2014,03,01,04,53,0.00
2014,03,01,04,54,0.00
2014,03,01,04,55,0.00
2014,03,01,04,56,0.00
2014,03,01,04,57,0.00
2014,03,01,04,58,0.00
2014,03,01,04,59,0.00
2014,03,01,05,00,0.00
2014,03,01,05,01,0.00
2014,03,01,05,02,0.00
2014,03,01,05,03,0.00
2014,03,01,05,04,0.00
2014,03,01,05,05,0.00
2014,03,01,05,06,0.00
2014,03,01,05,07,0.00
2014,03,01,05,08,0.00
2014,03,01,05,09,0.00
2014,03,01,05,10,0.00
2014,03,01,05,11,0.00
2014,03,01,05,12,0.00
2014,03,01,05,13,0.00
2014,03,01,05,14,0.00
2014,03,01,05,15,0.00
2014,03,01,05,16,0.00
2014,03,01,05,17,0.00
2014,03,01,05,18,0.00
2014,03,01,05,19,0.00
2014,03,01,05,20,0.00
2014,03,01,05,21,0.00
2014,03,01,05,22,0.00
2014,03,01,05,23,0.00
2014,03,01,05,24,0.00
2014,03,01,05,25,0.00
2014,03,01,05,26,0.00
2014,03,01,05,27,0.00
2014,03,01,05,28,0.00
2014,03,01,05,29,0.00
2014,03,01,05,30,0.00
2014,03,01,05,31,0.00
2014,03,01,05,32,0.00
2014,03,01,05,33,0.00
2014,03,01,05,34,0.00
2014,03,01,05,35,0.00
2014,03,01,05,36,0.00
2014,03,01,05,37,0.00
2014,03,01,05,38,0.00
2014,03,01,05,39,0.00
2014,03,01,05,40,0.00
2014,03,01,05,41,0.00
2014,03,01,05,42,0.00
2014,03,01,05,43,0.00
2014,03,01,05,44,0.00
2014,03,01,05,45,0.00
2014,03,01,05,46,0.00
2014,03,01,05,47,0.00
2014,03,01,05,48,0.00
2014,03,01,05,49,0.00
2014,03,01,05,50,0.00
2014,03,01,05,51,0.00
2014,03,01,05,52,0.00
2014,03,01,05,53,0.00
2014,03,01,05,54,0.00
2014,03,01,05,55,0.00
2014,03,01,05,56,0.00
2014,03,01,05,57,0.00
2014,03,01,05,58,0.00
2014,03,01,05,59,0.00
2014,03,01,06,00,0.00
2014,03,01,06,01,0.00
2014,03,01,06,02,0.00
2014,03,01,06,03,0.00
2014,03,01,06,04,0.00
2014,03,01,06,05,0.00
2014,03,01,06,06,0.00
2014,03,01,06,07,0.00
2014,03,01,06,08,0.00
2014,03,01,06,09,0.00
2014,03,01,06,10,0.00
2014,03,01,06,11,0.00
2014,03,01,06,12,0.00
2014,03,01,06,13,0.00
2014,03,01,06,14,0.00
2014,03,01,06,15,0.00
2014,03,01,06,16,0.00
2014,03,01,06,17,0.00
2014,03,01,06,18,0.00
2014,03,01,06,19,0.00
2014,03,01,06,20,0.00
2014,03,01,06,21,0.00
2014,03,01,06,22,0.00
2014,03,01,06,23,0.00
2014,03,01,06,24,0.00
2014,03,01,06,25,0.00
2014,03,01,06,26,0.00
2014,03,01,06,27,0.00
2014,03,01,06,28,0.00
2014,03,01,06,29,0.00
2014,03,01,06,30,0.00
2014,03,01,06,31,0.00
2014,03,01,06,32,0.00
2014,03,01,06,33,0.00
2014,03,01,06,34,0.00
2014,03,01,06,35,0.00
2014,03,01,06,36,0.00
2014,03,01,06,37,0.00
2014,03,01,06,38,0.00
2014,03,01,06,39,0.00
2014,03,01,06,40,0.00
2014,03,01,06,41,0.00
2014,03,01,06,42,0.00
2014,03,01,06,43,0.00
2014,03,01,06,44,0.00
2014,03,01,06,45,0.00
2014,03,01,06,46,0.00
2014,03,01,06,47,0.00
2014,03,01,06,48,0.00
2014,03,01,06,49,0.00
2014,03,01,06,50,0.00
2014,03,01,06,51,0.00
2014,03,01,06,52,0.00
2014,03,01,06,53,0.00
2014,03,01,06,54,0.00
2014,03,01,06,55,0.00
2014,03,01,06,56,0.00
2014,03,01,06,57,0.00
2014,03,01,06,58,0.00
2014,03,01,06,59,0.00
2014,03,01,07,00,0.00
2014,03,01,07,01,0.00
2014,03,01,07,02,0.00
2014,03,01,07,03,0.00
2014,03,01,07,04,0.00
2014,03,01,07,05,0.00
2014,03,01,07,06,0.00
2014,03,01,07,07,0.00
2014,03,01,07,08,0.00
2014,03,01,07,09,0.00
2014,03,01,07,10,0.00
2014,03,01,07,11,0.00
2014,03,01,07,12,0.00
2014,03,01,07,13,0.00
2014,03,01,07,14,0.80
2014,03,01,07,15,5.00
2014,03,01,07,16,5.00
2014,03,01,07,17,5.00
2014,03,01,07,18,5.00
2014,03,01,07,19,6.70
2014,03,01,07,20,7.00
2014,03,01,07,21,7.00
2014,03,01,07,22,7.90
2014,03,01,07,23,9.00
2014,03,01,07,24,9.00
2014,03,01,07,25,9.00
2014,03,01,07,26,9.30
2014,03,01,07,27,11.00
2014,03,01,07,28,11.00
2014,03,01,07,29,11.00
2014,03,01,07,30,11.00
2014,03,01,07,31,11.90
2014,03,01,07,32,12.00
2014,03,01,07,33,12.00
2014,03,01,07,34,12.00
2014,03,01,07,35,12.00
2014,03,01,07,36,13.50
2014,03,01,07,37,14.00
2014,03,01,07,38,14.00
2014,03,01,07,39,14.00
2014,03,01,07,40,14.00
2014,03,01,07,41,14.00
2014,03,01,07,42,15.60
2014,03,01,07,43,16.00
2014,03,01,07,44,16.00
2014,03,01,07,45,16.00
2014,03,01,07,46,17.10
2014,03,01,07,47,18.00
2014,03,01,07,48,18.00
2014,03,01,07,49,18.00
2014,03,01,07,50,18.00
2014,03,01,07,51,18.00
2014,03,01,07,52,18.50
2014,03,01,07,53,19.00
2014,03,01,07,54,19.00
2014,03,01,07,55,21.00
2014,03,01,07,56,21.00
2014,03,01,07,57,21.00
2014,03,01,07,58,22.20
2014,03,01,07,59,23.00
2014,03,01,08,00,23.00
2014,03,01,08,01,25.00
2014,03,01,08,02,25.40
2014,03,01,08,03,26.90
2014,03,01,08,04,28.00
2014,03,01,08,05,28.00
2014,03,01,08,06,29.80
2014,03,01,08,07,30.00
2014,03,01,08,08,30.00
2014,03,01,08,09,30.90
2014,03,01,08,10,32.00
2014,03,01,08,11,32.00
2014,03,01,08,12,32.90
2014,03,01,08,13,33.00
2014,03,01,08,14,33.00
2014,03,01,08,15,34.10
2014,03,01,08,16,35.00
2014,03,01,08,17,35.00
2014,03,01,08,18,36.90
2014,03,01,08,19,37.40
2014,03,01,08,20,39.00
2014,03,01,08,21,39.00
2014,03,01,08,22,39.00
2014,03,01,08,23,39.80
2014,03,01,08,24,42.10
2014,03,01,08,25,44.00
2014,03,01,08,26,44.00
2014,03,01,08,27,45.10
2014,03,01,08,28,46.00
2014,03,01,08,29,46.00
2014,03,01,08,30,47.00
2014,03,01,08,31,47.00
2014,03,01,08,32,47.00
2014,03,01,08,33,49.40
2014,03,01,08,34,51.00
2014,03,01,08,35,52.80
2014,03,01,08,36,53.00
2014,03,01,08,37,53.30
2014,03,01,08,38,54.00
2014,03,01,08,39,54.00
2014,03,01,08,40,55.50
2014,03,01,08,41,56.00
2014,03,01,08,42,56.00
2014,03,01,08,43,56.00
2014,03,01,08,44,56.90
2014,03,01,08,45,58.00
2014,03,01,08,46,56.60
2014,03,01,08,47,56.00
2014,03,01,08,48,56.00
2014,03,01,08,49,56.00
2014,03,01,08,50,56.00
2014,03,01,08,51,56.00
2014,03,01,08,52,56.00
2014,03,01,08,53,57.90
2014,03,01,08,54,58.40
2014,03,01,08,55,60.70
2014,03,01,08,56,62.00
2014,03,01,08,57,62.70
2014,03,01,08,58,64.60
2014,03,01,08,59,65.10
2014,03,01,09,00,67.00
2014,03,01,09,01,67.00
2014,03,01,09,02,68.00
2014,03,01,09,03,69.00
2014,03,01,09,04,69.00
2014,03,01,09,05,69.00
2014,03,01,09,06,69.20
2014,03,01,09,07,70.00
2014,03,01,09,08,70.00
2014,03,01,09,09,70.00
2014,03,01,09,10,69.20
2014,03,01,09,11,68.80
2014,03,01,09,12,67.00
2014,03,01,09,13,67.00
2014,03,01,09,14,64.10
2014,03,01,09,15,59.30
2014,03,01,09,16,58.00
2014,03,01,09,17,51.30
2014,03,01,09,18,49.90
2014,03,01,09,19,47.00
2014,03,01,09,20,44.00
2014,03,01,09,21,40.50
2014,03,01,09,22,39.10
2014,03,01,09,23,39.00
2014,03,01,09,24,39.00
2014,03,01,09,25,39.00
2014,03,01,09,26,39.00
2014,03,01,09,27,39.00
2014,03,01,09,28,45.10
2014,03,01,09,29,50.00
2014,03,01,09,30,56.10
2014,03,01,09,31,60.00
2014,03,01,09,32,65.40
2014,03,01,09,33,71.20
2014,03,01,09,34,72.00
2014,03,01,09,35,72.00
2014,03,01,09,36,69.60
2014,03,01,09,37,64.10
2014,03,01,09,38,63.00
2014,03,01,09,39,63.00
2014,03,01,09,40,63.00
2014,03,01,09,41,63.00
2014,03,01,09,42,65.20
2014,03,01,09,43,69.50
2014,03,01,09,44,72.60
2014,03,01,09,45,76.30
2014,03,01,09,46,83.10
2014,03,01,09,47,91.40
2014,03,01,09,48,97.10
2014,03,01,09,49,100.00
2014,03,01,09,50,106.00
2014,03,01,09,51,110.70
2014,03,01,09,52,108.80
2014,03,01,09,53,107.00
2014,03,01,09,54,106.20
2014,03,01,09,55,105.00
2014,03,01,09,56,105.00
2014,03,01,09,57,104.20
2014,03,01,09,58,103.70
2014,03,01,09,59,102.50
2014,03,01,10,00,104.00
2014,03,01,10,01,104.60
2014,03,01,10,02,105.00
2014,03,01,10,03,108.70
2014,03,01,10,04,111.50
2014,03,01,10,05,115.80
2014,03,01,10,06,120.40
2014,03,01,10,07,120.40
2014,03,01,10,08,120.00
2014,03,01,10,09,120.10
2014,03,01,10,10,121.00
2014,03,01,10,11,122.80
2014,03,01,10,12,127.00
2014,03,01,10,13,127.00
2014,03,01,10,14,129.20
2014,03,01,10,15,130.60
2014,03,01,10,16,143.10
2014,03,01,10,17,148.00
2014,03,01,10,18,148.00
2014,03,01,10,19,142.10
2014,03,01,10,20,133.80
2014,03,01,10,21,130.20
2014,03,01,10,22,131.20
2014,03,01,10,23,137.20
2014,03,01,10,24,141.00
2014,03,01,10,25,142.90
2014,03,01,10,26,136.80
2014,03,01,10,27,126.70
2014,03,01,10,28,117.80
2014,03,01,10,29,107.40
2014,03,01,10,30,99.90
2014,03,01,10,31,98.00
2014,03,01,10,32,98.00
2014,03,01,10,33,100.30
2014,03,01,10,34,115.10
2014,03,01,10,35,118.80
2014,03,01,10,36,118.80
2014,03,01,10,37,118.00
2014,03,01,10,38,120.60
2014,03,01,10,39,132.00
2014,03,01,10,40,139.80
2014,03,01,10,41,158.00
2014,03,01,10,42,159.10
2014,03,01,10,43,160.00
2014,03,01,10,44,160.00
2014,03,01,10,45,160.00
2014,03,01,10,46,161.50
2014,03,01,10,47,159.10
2014,03,01,10,48,145.30
2014,03,01,10,49,135.80
2014,03,01,10,50,130.60
2014,03,01,10,51,130.00
2014,03,01,10,52,130.00
2014,03,01,10,53,130.00
2014,03,01,10,54,147.70
2014,03,01,10,55,161.80
2014,03,01,10,56,164.60
2014,03,01,10,57,161.60
2014,03,01,10,58,160.00
2014,03,01,10,59,164.90
2014,03,01,11,00,175.80
2014,03,01,11,01,179.00
2014,03,01,11,02,178.10
2014,03,01,11,03,160.20
2014,03,01,11,04,149.90
2014,03,01,11,05,139.50
2014,03,01,11,06,131.50
2014,03,01,11,07,127.60
2014,03,01,11,08,127.30
2014,03,01,11,09,131.00
2014,03,01,11,10,134.00
2014,03,01,11,11,130.70
2014,03,01,11,12,123.40
2014,03,01,11,13,115.40
2014,03,01,11,14,109.20
2014,03,01,11,15,109.00
2014,03,01,11,16,109.00
2014,03,01,11,17,110.10
2014,03,01,11,18,117.30
2014,03,01,11,19,120.00
2014,03,01,11,20,141.80
2014,03,01,11,21,149.60
2014,03,01,11,22,149.80
2014,03,01,11,23,141.70
2014,03,01,11,24,129.50
2014,03,01,11,25,127.00
2014,03,01,11,26,125.20
2014,03,01,11,27,118.00
2014,03,01,11,28,118.00
2014,03,01,11,29,119.10
2014,03,01,11,30,126.00
2014,03,01,11,31,140.20
2014,03,01,11,32,151.60
2014,03,01,11,33,155.00
2014,03,01,11,34,155.00
2014,03,01,11,35,153.80
2014,03,01,11,36,153.00
2014,03,01,11,37,153.40
2014,03,01,11,38,161.60
2014,03,01,11,39,157.60
2014,03,01,11,40,148.30
2014,03,01,11,41,139.40
2014,03,01,11,42,133.20
2014,03,01,11,43,124.80
2014,03,01,11,44,119.60
2014,03,01,11,45,118.00
2014,03,01,11,46,118.00
2014,03,01,11,47,114.80
2014,03,01,11,48,115.50
2014,03,01,11,49,120.30
2014,03,01,11,50,125.50
2014,03,01,11,51,127.00
2014,03,01,11,52,131.00
2014,03,01,11,53,139.60
2014,03,01,11,54,149.30
2014,03,01,11,55,156.40
2014,03,01,11,56,160.60
2014,03,01,11,57,162.40
2014,03,01,11,58,166.30
2014,03,01,11,59,169.00
2014,03,01,12,00,169.00
2014,03,01,12,01,204.00
2014,03,01,12,02,200.30
2014,03,01,12,03,185.10
2014,03,01,12,04,179.00
2014,03,01,12,05,185.40
2014,03,01,12,06,195.60
2014,03,01,12,07,199.80
2014,03,01,12,08,199.00
2014,03,01,12,09,189.60
2014,03,01,12,10,178.00
2014,03,01,12,11,159.20
2014,03,01,12,12,153.00
2014,03,01,12,13,147.40
2014,03,01,12,14,121.80
2014,03,01,12,15,114.50
2014,03,01,12,16,113.60
2014,03,01,12,17,117.00
2014,03,01,12,18,122.50
2014,03,01,12,19,125.80
2014,03,01,12,20,137.70
2014,03,01,12,21,140.00
2014,03,01,12,22,142.90
2014,03,01,12,23,151.20
2014,03,01,12,24,170.20
2014,03,01,12,25,188.00
2014,03,01,12,26,196.80
2014,03,01,12,27,207.50
2014,03,01,12,28,187.10
2014,03,01,12,29,179.00
2014,03,01,12,30,174.10
2014,03,01,12,31,131.50
2014,03,01,12,32,131.70
2014,03,01,12,33,135.60
2014,03,01,12,34,140.50
2014,03,01,12,35,142.00
2014,03,01,12,36,150.80
2014,03,01,12,37,152.00
2014,03,01,12,38,147.80
2014,03,01,12,39,146.00
2014,03,01,12,40,146.00
2014,03,01,12,41,156.80
2014,03,01,12,42,158.00
2014,03,01,12,43,158.00
2014,03,01,12,44,134.10
2014,03,01,12,45,100.80
2014,03,01,12,46,95.90
2014,03,01,12,47,95.00
2014,03,01,12,48,92.20
2014,03,01,12,49,86.40
2014,03,01,12,50,82.10
2014,03,01,12,51,81.00
2014,03,01,12,52,81.00
2014,03,01,12,53,87.40
2014,03,01,12,54,90.00
2014,03,01,12,55,90.00
2014,03,01,12,56,90.00
2014,03,01,12,57,96.00
2014,03,01,12,58,103.00
2014,03,01,12,59,108.70
2014,03,01,13,00,114.40
2014,03,01,13,01,121.80
2014,03,01,13,02,125.00
2014,03,01,13,03,123.80
2014,03,01,13,04,123.00
2014,03,01,13,05,114.80
2014,03,01,13,06,113.20
2014,03,01,13,07,114.00
2014,03,01,13,08,113.50
2014,03,01,13,09,111.70
2014,03,01,13,10,107.80
2014,03,01,13,11,104.20
2014,03,01,13,12,104.00
2014,03,01,13,13,104.00
2014,03,01,13,14,106.60
2014,03,01,13,15,109.00
2014,03,01,13,16,105.80
2014,03,01,13,17,104.20
2014,03,01,13,18,106.50
2014,03,01,13,19,111.00
2014,03,01,13,20,120.80
2014,03,01,13,21,132.20
2014,03,01,13,22,134.00
2014,03,01,13,23,126.00
2014,03,01,13,24,115.30
2014,03,01,13,25,106.80
2014,03,01,13,26,104.00
2014,03,01,13,27,104.00
2014,03,01,13,28,112.10
2014,03,01,13,29,118.00
2014,03,01,13,30,116.90
2014,03,01,13,31,112.80
2014,03,01,13,32,108.60
2014,03,01,13,33,101.80
2014,03,01,13,34,90.70
2014,03,01,13,35,84.00
2014,03,01,13,36,84.00
2014,03,01,13,37,87.20
2014,03,01,13,38,91.00
2014,03,01,13,39,91.00
2014,03,01,13,40,90.80
2014,03,01,13,41,86.00
2014,03,01,13,42,89.30
2014,03,01,13,43,99.50
2014,03,01,13,44,103.10
2014,03,01,13,45,93.30
2014,03,01,13,46,91.00
2014,03,01,13,47,91.00
2014,03,01,13,48,90.60
2014,03,01,13,49,90.50
2014,03,01,13,50,93.60
2014,03,01,13,51,100.60
2014,03,01,13,52,106.70
2014,03,01,13,53,106.60
2014,03,01,13,54,106.60
2014,03,01,13,55,109.00
2014,03,01,13,56,109.00
2014,03,01,13,57,109.00
2014,03,01,13,58,112.70
2014,03,01,13,59,107.00
2014,03,01,14,00,100.20
2014,03,01,14,01,90.50
2014,03,01,14,02,95.90
2014,03,01,14,03,101.40
2014,03,01,14,04,100.20
2014,03,01,14,05,87.90
2014,03,01,14,06,79.80
2014,03,01,14,07,74.80
2014,03,01,14,08,74.00
2014,03,01,14,09,74.00
2014,03,01,14,10,74.00
2014,03,01,14,11,74.00
2014,03,01,14,12,76.10
2014,03,01,14,13,79.00
2014,03,01,14,14,91.00
2014,03,01,14,15,95.30
2014,03,01,14,16,101.60
2014,03,01,14,17,98.90
2014,03,01,14,18,97.00
2014,03,01,14,19,97.00
2014,03,01,14,20,97.00
2014,03,01,14,21,72.70
2014,03,01,14,22,70.00
2014,03,01,14,23,70.00
2014,03,01,14,24,68.40
2014,03,01,14,25,68.30
2014,03,01,14,26,69.00
2014,03,01,14,27,68.80
2014,03,01,14,28,65.00
2014,03,01,14,29,65.00
2014,03,01,14,30,62.20
2014,03,01,14,31,55.90
2014,03,01,14,32,53.20
2014,03,01,14,33,54.00
2014,03,01,14,34,54.80
2014,03,01,14,35,59.90
2014,03,01,14,36,63.00
2014,03,01,14,37,68.80
2014,03,01,14,38,72.00
2014,03,01,14,39,69.10
2014,03,01,14,40,69.00
2014,03,01,14,41,62.60
2014,03,01,14,42,51.90
2014,03,01,14,43,51.00
2014,03,01,14,44,51.00
2014,03,01,14,45,51.00
2014,03,01,14,46,51.00
2014,03,01,14,47,50.10
2014,03,01,14,48,47.20
2014,03,01,14,49,44.50
2014,03,01,14,50,42.30
2014,03,01,14,51,40.00
2014,03,01,14,52,40.60
2014,03,01,14,53,44.40
2014,03,01,14,54,47.00
2014,03,01,14,55,46.30
2014,03,01,14,56,40.90
2014,03,01,14,57,38.40
2014,03,01,14,58,32.00
2014,03,01,14,59,33.40
2014,03,01,15,00,35.00
2014,03,01,15,01,33.50
2014,03,01,15,02,33.00
2014,03,01,15,03,33.40
2014,03,01,15,04,36.40
2014,03,01,15,05,39.00
2014,03,01,15,06,39.00
2014,03,01,15,07,39.00
2014,03,01,15,08,33.50
2014,03,01,15,09,31.50
2014,03,01,15,10,29.30
2014,03,01,15,11,29.00
2014,03,01,15,12,32.00
2014,03,01,15,13,33.00
2014,03,01,15,14,39.70
2014,03,01,15,15,40.00
2014,03,01,15,16,40.00
2014,03,01,15,17,38.40
2014,03,01,15,18,34.30
2014,03,01,15,19,30.60
2014,03,01,15,20,28.10
2014,03,01,15,21,28.00
2014,03,01,15,22,28.80
2014,03,01,15,23,30.00
2014,03,01,15,24,30.00
2014,03,01,15,25,30.00
2014,03,01,15,26,29.70
2014,03,01,15,27,27.10
2014,03,01,15,28,24.10
2014,03,01,15,29,23.00
2014,03,01,15,30,23.00
2014,03,01,15,31,23.10
2014,03,01,15,32,25.00
2014,03,01,15,33,25.00
2014,03,01,15,34,25.50
2014,03,01,15,35,26.00
2014,03,01,15,36,26.00
2014,03,01,15,37,26.00
2014,03,01,15,38,24.40
2014,03,01,15,39,21.00
2014,03,01,15,40,21.00
2014,03,01,15,41,19.80
2014,03,01,15,42,19.00
2014,03,01,15,43,19.00
2014,03,01,15,44,19.50
2014,03,01,15,45,21.70
2014,03,01,15,46,23.90
2014,03,01,15,47,23.80
2014,03,01,15,48,23.00
2014,03,01,15,49,23.00
2014,03,01,15,50,22.00
2014,03,01,15,51,18.00
2014,03,01,15,52,18.50
2014,03,01,15,53,19.00
2014,03,01,15,54,19.00
2014,03,01,15,55,18.00
2014,03,01,15,56,18.00
2014,03,01,15,57,18.00
2014,03,01,15,58,18.00
2014,03,01,15,59,18.00
2014,03,01,16,00,16.40
2014,03,01,16,01,15.80
2014,03,01,16,02,14.00
2014,03,01,16,03,14.00
2014,03,01,16,04,14.00
2014,03,01,16,05,14.00
2014,03,01,16,06,14.00
2014,03,01,16,07,14.00
2014,03,01,16,08,13.40
2014,03,01,16,09,12.00
2014,03,01,16,10,11.40
2014,03,01,16,11,11.00
2014,03,01,16,12,11.00
2014,03,01,16,13,11.00
2014,03,01,16,14,11.00
2014,03,01,16,15,11.00
2014,03,01,16,16,11.00
2014,03,01,16,17,11.70
2014,03,01,16,18,12.00
2014,03,01,16,19,12.00
2014,03,01,16,20,12.00
2014,03,01,16,21,12.00
2014,03,01,16,22,11.40
2014,03,01,16,23,11.00
2014,03,01,16,24,10.90
2014,03,01,16,25,9.50
2014,03,01,16,26,11.00
2014,03,01,16,27,11.00
2014,03,01,16,28,11.00
2014,03,01,16,29,11.00
2014,03,01,16,30,11.00
2014,03,01,16,31,10.60
2014,03,01,16,32,9.00
2014,03,01,16,33,9.00
2014,03,01,16,34,9.00
2014,03,01,16,35,7.40
2014,03,01,16,36,8.90
2014,03,01,16,37,9.00
2014,03,01,16,38,9.00
2014,03,01,16,39,7.90
2014,03,01,16,40,7.00
2014,03,01,16,41,7.00
2014,03,01,16,42,7.00
2014,03,01,16,43,6.50
2014,03,01,16,44,5.00
2014,03,01,16,45,5.00
2014,03,01,16,46,5.00
2014,03,01,16,47,5.00
2014,03,01,16,48,5.00
2014,03,01,16,49,5.00
2014,03,01,16,50,5.00
2014,03,01,16,51,5.00
2014,03,01,16,52,1.50
2014,03,01,16,53,0.00
2014,03,01,16,54,0.00
2014,03,01,16,55,1.40
2014,03,01,16,56,5.00
2014,03,01,16,57,6.20
2014,03,01,16,58,8.50
2014,03,01,16,59,9.00
2014,03,01,17,00,6.70
2014,03,01,17,01,3.50
2014,03,01,17,02,0.00
2014,03,01,17,03,0.00
2014,03,01,17,04,0.00
2014,03,01,17,05,0.00
2014,03,01,17,06,1.00
2014,03,01,17,07,5.00
2014,03,01,17,08,5.00
2014,03,01,17,09,5.00
2014,03,01,17,10,1.10
2014,03,01,17,11,0.00
2014,03,01,17,12,0.00
2014,03,01,17,13,0.00
2014,03,01,17,14,0.00
2014,03,01,17,15,0.00
2014,03,01,17,16,0.00
2014,03,01,17,17,0.00
2014,03,01,17,18,0.00
2014,03,01,17,19,0.00
2014,03,01,17,20,0.00
2014,03,01,17,21,0.00
2014,03,01,17,22,0.00
2014,03,01,17,23,0.00
2014,03,01,17,24,0.00
2014,03,01,17,25,0.00
2014,03,01,17,26,0.00
2014,03,01,17,27,0.00
2014,03,01,17,28,0.00
2014,03,01,17,29,0.00
2014,03,01,17,30,0.00
2014,03,01,17,31,0.00